Location: Newark
(48.4472°N, 1.4892°E)
Time: 10:54:06
(UTC+00:00)

Transit 4A - Pass Details

Date: 26 January 2021
Orbit: 866 x 978 km, 66.8° (Epoch: 26 February)

Event Time Altitude Azimuth Distance (km) Brightness Sun altitude
Rises 19:43:48 0° 238° (WSW) 3,671 11.7 -29.7°
Reaches altitude 10° 19:46:31 10° 244° (WSW) 2,726 11.0 -30.2°
Maximum altitude 19:52:35 44° 316° (NW) 1,325 8.9 -31.2°
Enters shadow 19:54:42 34° 360° (N) 1,562 9.0 -31.5°
